[[{"header":{"parameterUnit":"m.s-1","parameterCategory":1,"la1":30.2991,"la2":30.254,"lo1":-89.0895,"lo2":-89.0444,"dy":0.0017,"dx":0.0017,"nx":28,"ny":28,"refTime":"2024-02-14T03:00:00:Z","depth":0,"parameterNumber":2,"parameterNumberName":"U-component_of_WINDS"},"data":[0,0,0,0,0,0,0,0,0,0,0,0,0,0,0,0,0,0,0,0,0,0,0,0,0,0,0,0,0,0,0,0,0,0,0,0,0,0,0,0,0,0,0,0,0,0,0,0,0,0,0,0,0,0,0,0,0,0,0.1118,0.1118,0,0.1157,0.1157,0.1158,0.1161,0.1161,0.1161,0.116,0.1199,0.12,0.1202,0,0,0,0,0,0,0,0,0,0,0,0,0,0.1047,0.1048,0.1118,0.1118,0.1119,0.1157,0.1157,0.1158,0.1162,0.1161,0.1161,0.116,0.1199,0.12,0.1202,0,0,0,0,0,0,0,0,0,0,0,0,0,0.1081,0.1049,0.1118,0.1125,0.1126,0.1157,0.1157,0.1158,0.1162,0.1161,0.116,0.116,0.1198,0.12,0.1202,0.1227,0,0,0.1209,0.1209,0,0,0,0,0,0,0,0,0.1079,0.1084,0.1124,0.1125,0.1126,0.1154,0.1147,0.1181,0.1162,0.1148,0.116,0.116,0.1184,0.1188,0.1196,0.1229,0.1231,0.1209,0.121,0.1211,0.1212,0,0,0,0,0,0,0,0.1077,0.1082,0.1133,0.1124,0.1126,0.1127,0.1131,0.1153,0.1169,0.1149,0.115,0.1154,0.1185,0.1194,0.1197,0.1231,0.1209,0.1211,0.1212,0.1213,0.1289,0.129,0,0,0,0,0,0,0.1073,0.108,0.1132,0.1134,0.1101,0.1129,0.1133,0.1145,0.1169,0.1172,0.1155,0.1154,0.1191,0.1195,0.1198,0.1231,0.1211,0.1213,0.1214,0.1288,0.1289,0.129,0,0,0,0,0,0,0.1071,0.1078,0.1131,0.1107,0.1114,0.113,0.1144,0.1147,0.1156,0.1173,0.1176,0.1161,0.119,0.1195,0.1221,0.1232,0.1214,0.1216,0.1287,0.1289,0.129,0.1295,0,0,0,0,0,0,0.1069,0.1077,0.1087,0.1108,0.1115,0.1152,0.1145,0.1148,0.116,0.1159,0.118,0.1183,0.119,0.1217,0.1223,0.1235,0.1217,0.1286,0.1288,0.1289,0.1294,0.1296,0.1298,0,0,0,0,0,0.1067,0.1086,0.1087,0.1093,0.1128,0.1153,0.1157,0.1166,0.116,0.117,0.1182,0.1182,0.123,0.122,0.1226,0.1239,0.1286,0.1287,0.1289,0.1293,0.1296,0.1298,0,0,0,0,0,0,0.1065,0.1089,0.109,0.1116,0.1133,0.1153,0.1166,0.1168,0.1186,0.1185,0.1195,0.1199,0.1224,0.1234,0.1222,0.1265,0.1257,0.126,0.1258,0.1261,0.1263,0.126,0.1219,0,0,0,0,0,0.1067,0.1086,0.1106,0.1127,0.1135,0.1149,0.116,0.1166,0.1183,0.1189,0.1202,0.1219,0.1238,0.125,0.1268,0.1295,0.13,0.1307,0.1309,0.1311,0.1313,0.133,0.1334,0.1296,0.1296,0.1296,0,0,0.1073,0.1088,0.1099,0.1127,0.114,0.1159,0.1155,0.1175,0.1189,0.1192,0.1217,0.1228,0.1246,0.1273,0.1286,0.1282,0.1325,0.1313,0.1314,0.1316,0.1332,0.1336,0.1339,0.1297,0.1297,0.1296,0,0,0.1093,0.1106,0.1126,0.114,0.116,0.117,0.1175,0.1195,0.1203,0.1228,0.1232,0.1249,0.1281,0.1295,0.1306,0.1333,0.1335,0.1339,0.135,0.1366,0.137,0.1372,0.1383,0.1387,0.1341,0.1341,0.1341,0,0.1097,0.1126,0.1136,0.1156,0.1169,0.1174,0.1195,0.1207,0.1232,0.1241,0.1237,0.1279,0.1291,0.1322,0.133,0.1338,0.1345,0.1337,0.1368,0.1371,0.1374,0.1384,0.1388,0.1342,0.1342,0.1342,0.1342,0,0.1131,0.1151,0.1165,0.119,0.1204,0.1225,0.1238,0.1251,0.1256,0.1266,0.1293,0.1309,0.1331,0.1339,0.1343,0.1371,0.1369,0.1366,0.1358,0.1378,0.1388,0.1392,0.1343,0.1342,0.1342,0.1342,0,0,0.1149,0.1181,0.1186,0.1199,0.1222,0.1238,0.1259,0.1282,0.1294,0.1311,0.133,0.1358,0.1357,0.1369,0.1376,0.139,0.1413,0.1386,0.1387,0.1391,0.1446,0.1448,0.1452,0.1414,0.1414,0.1415,0.1445,0,0.1173,0.1211,0.1221,0.1254,0.1273,0.1279,0.1298,0.1315,0.1325,0.1344,0.1355,0.1376,0.1371,0.138,0.1394,0.1407,0.1424,0.1405,0.1432,0.1432,0.1427,0.1457,0.1459,0.1486,0.1448,0.1449,0.145,0,0.1204,0.1224,0.1259,0.1282,0.1291,0.1307,0.133,0.1347,0.1367,0.1374,0.1389,0.1394,0.1418,0.1409,0.1441,0.1428,0.144,0.1448,0.145,0.1453,0.1442,0.1462,0.1495,0.1499,0.1456,0.1455,0.1455,0,0.1216,0.1251,0.1277,0.1287,0.1314,0.1326,0.1338,0.1357,0.1371,0.139,0.14,0.1421,0.1434,0.1451,0.1462,0.1455,0.1495,0.1486,0.1501,0.1501,0.1509,0.1509,0.1545,0.1516,0.1516,0.1516,0.1516,0,0.1241,0.1262,0.1282,0.1298,0.1323,0.1335,0.1359,0.1371,0.1388,0.1407,0.1413,0.1431,0.1445,0.1464,0.1474,0.15,0.1505,0.1512,0.1514,0.1512,0.1511,0.152,0.1518,0.1517,0.1517,0.1517,0.1517,0,0.1257,0.1271,0.13,0.1324,0.1331,0.1348,0.1369,0.1385,0.1396,0.142,0.1427,0.1445,0.1468,0.1482,0.1511,0.1517,0.1547,0.1548,0.1541,0.1542,0.1557,0.1555,0.16,0.1607,0.1573,0.1573,0.1573,0,0.1272,0.1289,0.1316,0.1329,0.1342,0.1363,0.1377,0.139,0.1405,0.143,0.1444,0.1468,0.1488,0.1526,0.1541,0.1564,0.1567,0.1581,0.157,0.1568,0.1568,0.1567,0.1569,0.1583,0.1583,0.1583,0.1583,0,0.1298,0.1305,0.1326,0.135,0.1367,0.1386,0.1405,0.1416,0.1432,0.1449,0.1473,0.1489,0.152,0.1545,0.157,0.1582,0.1586,0.1587,0.1592,0.1589,0.1585,0.1589,0.1546,0.1586,0.1585,0.1585,0.1585,0.1585,0.1315,0.1331,0.1353,0.1376,0.1392,0.141,0.1427,0.1442,0.1463,0.1489,0.1496,0.1522,0.1544,0.1577,0.1591,0.1612,0.161,0.1616,0.1618,0.162,0.1621,0.1581,0.1616,0.1616,0.1616,0.1616,0.1616,0,0.1342,0.1357,0.1378,0.1406,0.1424,0.1427,0.1449,0.1464,0.1488,0.1507,0.1528,0.1557,0.1581,0.16,0.1625,0.1639,0.1641,0.1645,0.1644,0.1647,0.1621,0.1615,0.1642,0.1642,0.1642,0.1642,0.1642,0.1642,0.1358,0.1386,0.1396,0.1432,0.1446,0.1473,0.1485,0.1502,0.1518,0.1551,0.1572,0.1584,0.1604,0.1631,0.1653,0.1658,0.1668,0.1671,0.1676,0.1652,0.1649,0.1646,0.164,0.1673,0.1673,0.1701,0.1701,0.1701]},{"header":{"parameterUnit":"m.s-1","parameterCategory":1,"la1":30.2991,"la2":30.254,"lo1":-89.0895,"lo2":-89.0444,"dy":0.0017,"dx":0.0017,"nx":28,"ny":28,"refTime":"2024-02-14T03:00:00:Z","depth":0,"parameterNumber":3,"parameterNumberName":"V-component_of_WINDS"},"data":[0,0,0,0,0,0,0,0,0,0,0,0,0,0,0,0,0,0,0,0,0,0,0,0,0,0,0,0,0,0,0,0,0,0,0,0,0,0,0,0,0,0,0,0,0,0,0,0,0,0,0,0,0,0,0,0,0,0,-1.7819,-1.7818,0,-1.7757,-1.7756,-1.7756,-1.7688,-1.7687,-1.7686,-1.7685,-1.7622,-1.7621,-1.762,0,0,0,0,0,0,0,0,0,0,0,0,0,-1.7877,-1.7876,-1.7819,-1.7818,-1.7817,-1.7757,-1.7756,-1.7755,-1.7688,-1.7687,-1.7686,-1.7685,-1.7622,-1.7621,-1.762,0,0,0,0,0,0,0,0,0,0,0,0,0,-1.7837,-1.7876,-1.7819,-1.7776,-1.7772,-1.7757,-1.7756,-1.7755,-1.7688,-1.7687,-1.7685,-1.7684,-1.7622,-1.7621,-1.762,-1.7642,0,0,-1.7617,-1.7616,0,0,0,0,0,0,0,0,-1.7839,-1.7835,-1.7783,-1.7779,-1.7774,-1.7729,-1.7753,-1.7717,-1.7689,-1.772,-1.7685,-1.7683,-1.7659,-1.7654,-1.7646,-1.7639,-1.7637,-1.7616,-1.7616,-1.7615,-1.7615,0,0,0,0,0,0,0,-1.7842,-1.7837,-1.7794,-1.7783,-1.7777,-1.776,-1.7753,-1.7746,-1.7698,-1.7717,-1.7712,-1.7706,-1.7656,-1.7647,-1.7644,-1.7636,-1.7616,-1.7615,-1.7615,-1.7614,-1.7641,-1.7643,0,0,0,0,0,0,-1.7852,-1.784,-1.7796,-1.7792,-1.7804,-1.776,-1.7752,-1.7745,-1.7698,-1.769,-1.7707,-1.7703,-1.765,-1.7645,-1.7642,-1.7663,-1.7615,-1.7614,-1.7614,-1.764,-1.7642,-1.7643,0,0,0,0,0,0,-1.7853,-1.7848,-1.7799,-1.7815,-1.7807,-1.7761,-1.7753,-1.7744,-1.7736,-1.769,-1.7682,-1.7707,-1.7649,-1.7643,-1.7642,-1.766,-1.7614,-1.7613,-1.7638,-1.764,-1.7642,-1.7706,0,0,0,0,0,0,-1.7855,-1.7849,-1.7858,-1.7815,-1.7807,-1.7801,-1.7754,-1.7744,-1.7734,-1.7728,-1.7688,-1.768,-1.7647,-1.7644,-1.7641,-1.7657,-1.7612,-1.7636,-1.7639,-1.7642,-1.7703,-1.7711,-1.7717,0,0,0,0,0,-1.7857,-1.7879,-1.7858,-1.7854,-1.7816,-1.7802,-1.7797,-1.7758,-1.7736,-1.7743,-1.7714,-1.7682,-1.7658,-1.7645,-1.764,-1.7657,-1.7635,-1.7638,-1.7642,-1.7699,-1.7709,-1.7717,0,0,0,0,0,0,-1.7925,-1.7872,-1.7849,-1.7858,-1.7835,-1.7791,-1.7799,-1.777,-1.7753,-1.7748,-1.7701,-1.7692,-1.7696,-1.7676,-1.7662,-1.7674,-1.7642,-1.7644,-1.7687,-1.7696,-1.7703,-1.7708,-1.7611,0,0,0,0,0,-1.794,-1.7934,-1.7888,-1.79,-1.789,-1.7847,-1.7839,-1.7811,-1.7785,-1.7775,-1.7746,-1.7722,-1.7709,-1.7701,-1.7687,-1.7699,-1.7689,-1.7708,-1.7716,-1.7722,-1.7724,-1.7727,-1.7735,-1.7654,-1.7654,-1.7653,0,0,-1.7973,-1.7944,-1.7943,-1.7913,-1.7892,-1.7885,-1.7839,-1.7835,-1.7829,-1.7775,-1.7771,-1.7749,-1.7719,-1.7724,-1.7725,-1.7707,-1.7744,-1.7726,-1.7731,-1.773,-1.7731,-1.7739,-1.7746,-1.7656,-1.7655,-1.7655,0,0,-1.8029,-1.8007,-1.8013,-1.7993,-1.7961,-1.7932,-1.7934,-1.7893,-1.7876,-1.7872,-1.7831,-1.7823,-1.7802,-1.7782,-1.7769,-1.7815,-1.7784,-1.7811,-1.785,-1.7853,-1.786,-1.7865,-1.788,-1.7886,-1.7814,-1.7814,-1.7814,0,-1.8074,-1.8062,-1.802,-1.8018,-1.8005,-1.7955,-1.7961,-1.7943,-1.7908,-1.79,-1.7881,-1.7852,-1.7829,-1.7828,-1.7839,-1.783,-1.7829,-1.7816,-1.7862,-1.7867,-1.7871,-1.7885,-1.7891,-1.7818,-1.7817,-1.7817,-1.7817,0,-1.8118,-1.8111,-1.812,-1.8087,-1.8075,-1.8077,-1.8034,-1.8027,-1.8,-1.7973,-1.7968,-1.7938,-1.7915,-1.7913,-1.7887,-1.7907,-1.7897,-1.7871,-1.7837,-1.7883,-1.7895,-1.7901,-1.7823,-1.7821,-1.782,-1.782,0,0,-1.8216,-1.8158,-1.8162,-1.8146,-1.8106,-1.81,-1.8098,-1.8076,-1.807,-1.8048,-1.8045,-1.8027,-1.8002,-1.7987,-1.7957,-1.796,-1.7997,-1.7933,-1.7932,-1.7945,-1.8016,-1.8036,-1.8043,-1.7976,-1.7977,-1.7978,-1.8018,0,-1.8264,-1.8259,-1.822,-1.8225,-1.8217,-1.8169,-1.8167,-1.8142,-1.8116,-1.8105,-1.8076,-1.8063,-1.8032,-1.8022,-1.8023,-1.7992,-1.801,-1.7989,-1.7972,-1.7971,-1.798,-1.8049,-1.807,-1.811,-1.8023,-1.8023,-1.8024,0,-1.832,-1.83,-1.8305,-1.8263,-1.8258,-1.8258,-1.8233,-1.8223,-1.8194,-1.8174,-1.8157,-1.8123,-1.8117,-1.8086,-1.8077,-1.8063,-1.8053,-1.8037,-1.8038,-1.8034,-1.8,-1.8047,-1.8122,-1.8128,-1.8031,-1.8031,-1.803,0,-1.8389,-1.8363,-1.8362,-1.835,-1.8302,-1.8303,-1.8283,-1.8251,-1.824,-1.8218,-1.821,-1.8188,-1.8176,-1.816,-1.812,-1.8101,-1.8115,-1.8081,-1.8098,-1.8099,-1.8103,-1.8103,-1.8177,-1.8098,-1.8098,-1.8098,-1.8098,0,-1.8447,-1.8451,-1.8393,-1.8392,-1.8395,-1.835,-1.8354,-1.8329,-1.8301,-1.8294,-1.8251,-1.8245,-1.8194,-1.8181,-1.8151,-1.8147,-1.8142,-1.8125,-1.8117,-1.8129,-1.8131,-1.8122,-1.8118,-1.8099,-1.8099,-1.8099,-1.8098,0,-1.8525,-1.8486,-1.8481,-1.8436,-1.8425,-1.8429,-1.8389,-1.8386,-1.8357,-1.8348,-1.8344,-1.8298,-1.8281,-1.824,-1.8213,-1.8192,-1.8195,-1.8181,-1.8206,-1.82,-1.8219,-1.8218,-1.8289,-1.8296,-1.8214,-1.8215,-1.8215,0,-1.8564,-1.8566,-1.8521,-1.8513,-1.8495,-1.8483,-1.847,-1.8425,-1.8414,-1.8379,-1.838,-1.8359,-1.8341,-1.8316,-1.828,-1.8258,-1.8242,-1.8268,-1.8238,-1.8249,-1.8241,-1.8241,-1.824,-1.8275,-1.8276,-1.8277,-1.8278,0,-1.8637,-1.8618,-1.8602,-1.8579,-1.8565,-1.8545,-1.8522,-1.8518,-1.8467,-1.8456,-1.8439,-1.8424,-1.8395,-1.8375,-1.8347,-1.8326,-1.8293,-1.8287,-1.829,-1.8302,-1.8316,-1.8307,-1.8223,-1.8286,-1.8285,-1.8284,-1.8284,-1.8284,-1.8696,-1.8695,-1.8663,-1.8646,-1.8624,-1.8603,-1.8598,-1.8567,-1.8552,-1.8525,-1.8499,-1.8483,-1.8451,-1.841,-1.839,-1.8377,-1.836,-1.8364,-1.8365,-1.8367,-1.8371,-1.8318,-1.8372,-1.8371,-1.8371,-1.8371,-1.8371,0,-1.8767,-1.8743,-1.8728,-1.8697,-1.8683,-1.8654,-1.8626,-1.8617,-1.8604,-1.8576,-1.8559,-1.8537,-1.8517,-1.8478,-1.8454,-1.845,-1.8435,-1.8446,-1.8445,-1.844,-1.8388,-1.8388,-1.8459,-1.8459,-1.8459,-1.8459,-1.8459,-1.8459,-1.8801,-1.8798,-1.8774,-1.8758,-1.8734,-1.8718,-1.8705,-1.8685,-1.8663,-1.8641,-1.8624,-1.8599,-1.8566,-1.8539,-1.8519,-1.8508,-1.85,-1.8516,-1.85,-1.8453,-1.8444,-1.8436,-1.8436,-1.8515,-1.8515,-1.8553,-1.8553,-1.8554]}]]